Location: Delettes
(50.6178°N, 2.2123°E)
Time: 09:27:56
(UTC+00:00)

Meteor 1-23 Rocket - Pass Details

Date: 27 February 2020
Orbit: 841 x 884 km, 81.3° (Epoch: 03 April)

Event Time Altitude Azimuth Distance (km) Brightness Sun altitude
Rises 19:58:37 0° 348° (NNW) 3,435 7.8 -24.4°
Reaches altitude 10° 20:01:03 10° 351° (N) 2,501 7.0 -24.8°
Maximum altitude 20:06:44 74° 76° (ENE) 903 4.1 -25.6°
Enters shadow 20:07:09 70° 112° (ESE) 919 4.1 -25.7°
